Simultaneous Nadir Overpasses (SNOs) Predictions

Prediction of SNOs between FY3D and TERRA Satellite Orbit:

Table of predicted SNOs for the next 14.0 days since TLE Epoch: 2/13/2025
Index Date (FY3D) Time (FY3D) Lat,Lon (FY3D) SZA (FY3D ) Date (TERRA) Time (TERRA) Lat,Lon (TERRA) SZA (TERRA ) Distance(km) Time Diff (sec)
1 02/15/2025 10:30:27 77.10, 22.52 89.57 02/15/2025 10:31:32 77.08, 22.54 89.54 2.21 65
2 02/15/2025 11:21:11 -77.07,-170.01 90.49 02/15/2025 11:20:54 -77.04,-169.95 90.51 3.20 17
3 02/17/2025 21:42:49 77.09,-145.44 88.69 02/17/2025 21:43:12 77.08,-145.44 88.68 0.62 23
4 02/17/2025 22:33:33 -77.05, 22.04 91.37 02/17/2025 22:32:34 -77.04, 22.07 91.38 1.39 59
5 02/20/2025 08:04:27 -77.11,-120.90 92.16 02/20/2025 08:05:32 -77.12,-120.92 92.16 0.98 65
6 02/20/2025 08:55:11 77.08, 46.57 87.80 02/20/2025 08:54:51 77.09, 46.65 87.81 2.61 20
7 02/22/2025 19:16:49 -77.11, 71.09 93.06 02/22/2025 19:17:11 -77.10, 71.04 93.07 1.54 22
8 02/22/2025 20:07:33 77.07,-121.45 86.89 02/22/2025 20:06:30 77.07,-121.38 86.89 1.72 63
9 02/25/2025 05:38:26 77.16, 95.54 86.09 02/25/2025 05:39:26 77.14, 95.59 86.07 1.98 60
10 02/25/2025 06:29:10 -77.11, -96.96 93.97 02/25/2025 06:28:48 -77.09, -96.93 93.99 2.51 22



Historial Predications of SNOs between FY3D and TERRA
